Location: Spring Creek
(38.2870°N, 100.2160°W)
Time: 03:53:33
(UTC+00:00)

SL-4 R/B - Pass Details

Date: 08 May 2021
Orbit: 427 x 663 km, 51.6° (Epoch: 22 June)

Event Time Altitude Azimuth Distance (km) Brightness Sun altitude
Rises 02:03:45 0° 314° (NW) 2,748 7.3 -5.4°
Reaches altitude 10° 02:06:17 10° 328° (NNW) 1,895 5.8 -5.8°
Maximum altitude 02:09:53 25° 24° (NNE) 1,240 3.9 -6.4°
Drops below altitude 10° 02:13:40 10° 80° (E) 2,001 4.4 -7.1°
Enters shadow 02:14:58 - 88° (E) 2,429 4.8 -7.3°
